PHASE 3B (AO-10)

Last updated on Sun Sep 14 2025 00:03:09 GMT+0000 (Coordinated Universal Time)

1 14129U 83058B 25256.06052969 .00000019 00000+0 00000+0 0 9996 2 14129 26.3356 266.5389 6068993 38.4794 352.1757 2.05870262289785
UTC large
Height (km)
Speed (km/s)
/
Latitude / Longitude
Inclination (degrees)
Orbital Period (minutes)
Azimuth
Elevation
Range (km)
Doppler Factor

Next 0 passes for location: London (51.5072 / 0.1276)

Sorry there are no passes over London.